风云三号F星 (FENGYUN 3F)

导读

FENGYUN 3F(风云三号F星)是中国于2023年8月3日发射的第二代极轨气象卫星,运行于836公里高度的太阳同步轨道,降交点过赤道时间为上午10点左右。卫星共搭载10台先进探测载荷,包括升级后的中分辨率光谱成像仪、红外高光谱大气垂直探测仪等,所有载荷均工作正常。它可实现全球多光谱、三维定量大气观测,数据广泛应用于数值天气预报、气候监测、防灾减灾等领域,与组网卫星共同提升我国气象观测精度与全球服务能力。

基本信息
目录编号:
57490
目录名称:
FENGYUN 3F
国际标识:
2023-111A
轨道中心:
EARTH
卫星名称:
风云三号F星
卫星全名:
风云三号F星 (FENGYUN 3F)
卫星状态:
在轨 (已飞行1089 天)
发射日期:
2023-08-03 UTC
国别 :
中国 (CN)
星等 :
--
轨道信息
数据来源 国际轨道数据 AOE轨道数据
星历时间 2026-07-27T23:10:57+0800
7小时前
查看轨道信息
2026-07-25T00:00:00+0800
3天前
查看轨道信息
半长轴 7203.676km 7203.669km
偏心率 0.000101 0.0001264
轨道倾角 98.682° 98.684°
近地点辐角 75.990° 34.485°
升交点赤经 277.884° 274.972°
平近点角 284.139° 292.943°
近地点 824.811km 824.621km
远地点 826.267km 826.443km
周期 101.412分钟 101.412分钟
每日圈数 14.199451 14.199473
详细信息
平衡模式:
三轴稳定
覆盖范围:
亚洲
运营商:
夏威夷科学技术博物馆
运营商所在国:
美国
制造商(研发单位):
上海航天技术研究院
制造商所在国:
中国
使用方式:
暂无
卫星简介
风云气象卫星系列(FENGYUN Meteorological Satellite)是中国于1977年开始研制的气象卫星系列,目前发射了风云一号、风云二号、风云三号、风云四号等卫星系列。其中,风云二号系列、风云四号系列为风云静止卫星,风云一号系列、风云三号系列为风云极轨卫星。该卫星仍在工作。
2D轨道图
3D轨道图
轨道高度分析图
轨道倾角分析图
轨道综合分析图
查看轨道综合分析图